Previsão horária em Abdrahimovo

Hoje, 30 Setembro, Quarta-feira

Tempo Temperatura Precipitação Vento Pressão Humidade
00:00 +9°C° 0 mm 0 m/s 757 mmHg 88%
01:00 +9°C° 0 mm 0 m/s 757 mmHg 89%
02:00 +9°C° 0 mm 0 m/s 757 mmHg 89%
03:00 +9°C° 0 mm 0 m/s 757 mmHg 90%
04:00 +8°C° 0 mm 0 m/s 757 mmHg 91%
05:00 +8°C° 0 mm 0 m/s 757 mmHg 92%
06:00 +8°C° 0 mm 0 m/s 757 mmHg 92%
07:00 +8°C° 0 mm 0 m/s 757 mmHg 92%
08:00 +10°C° 0 mm 0 m/s 757 mmHg 87%
09:00 +12°C° 0 mm 0 m/s 757 mmHg 81%
10:00 +14°C° 0 mm 1 m/s 757 mmHg 75%
11:00 +15°C° 0 mm 1 m/s 757 mmHg 71%
12:00 +16°C° 0 mm 1 m/s 757 mmHg 66%
13:00 +18°C° 0 mm 1 m/s 757 mmHg 62%
14:00 +18°C° 0 mm 1 m/s 757 mmHg 63%
15:00 +18°C° 0 mm 1 m/s 757 mmHg 65%
16:00 +18°C° 0 mm 1 m/s 756 mmHg 66%
17:00 +15°C° 0 mm 1 m/s 756 mmHg 72%
18:00 +14°C° 0 mm 1 m/s 756 mmHg 77%
19:00 +12°C° 0 mm 1 m/s 756 mmHg 83%
20:00 +12°C° 0 mm 1 m/s 757 mmHg 84%
21:00 +12°C° 0 mm 1 m/s 757 mmHg 86%
22:00 +11°C° 0 mm 1 m/s 757 mmHg 88%
23:00 +11°C° 0 mm 1 m/s 757 mmHg 89%

Amanhã, 1 Outubro, Quinta-feira

Tempo Temperatura Precipitação Vento Pressão Humidade
00:00 +9°C° 0 mm 0 m/s 757 mmHg 90%
01:00 +9°C° 0 mm 0 m/s 757 mmHg 91%
02:00 +9°C° 0 mm 0 m/s 757 mmHg 91%
03:00 +9°C° 0 mm 0 m/s 757 mmHg 91%
04:00 +8°C° 0 mm 0 m/s 757 mmHg 91%
05:00 +8°C° 0 mm 0 m/s 757 mmHg 92%
06:00 +8°C° 0 mm 0 m/s 757 mmHg 92%
07:00 +8°C° 0 mm 0 m/s 757 mmHg 92%
08:00 +10°C° 0 mm 0 m/s 757 mmHg 87%
09:00 +11°C° 0 mm 0 m/s 757 mmHg 82%
10:00 +13°C° 0 mm 0 m/s 757 mmHg 76%
11:00 +14°C° 0 mm 0 m/s 757 mmHg 72%
12:00 +15°C° 0 mm 0 m/s 756 mmHg 67%
13:00 +16°C° 0 mm 0 m/s 756 mmHg 63%
14:00 +16°C° 0 mm 0 m/s 756 mmHg 63%
15:00 +16°C° 0 mm 0 m/s 756 mmHg 63%
16:00 +16°C° 0 mm 0 m/s 756 mmHg 64%
17:00 +14°C° 0 mm 0 m/s 756 mmHg 69%
18:00 +13°C° 0 mm 0 m/s 756 mmHg 74%
19:00 +11°C° 0 mm 0 m/s 756 mmHg 79%
20:00 +11°C° 0 mm 0 m/s 756 mmHg 81%
21:00 +10°C° 0 mm 0 m/s 756 mmHg 83%
22:00 +10°C° 0 mm 0 m/s 756 mmHg 84%
23:00 +10°C° 0 mm 0 m/s 756 mmHg 85%

Depois de amanhã, 2 Outubro, Sexta-feira

Tempo Temperatura Precipitação Vento Pressão Humidade
00:00 +9°C° 0 mm 0 m/s 756 mmHg 86%
01:00 +9°C° 0 mm 0 m/s 755 mmHg 87%
02:00 +9°C° 0 mm 0 m/s 755 mmHg 87%
03:00 +8°C° 0 mm 0 m/s 755 mmHg 87%
04:00 +8°C° 0 mm 0 m/s 755 mmHg 88%
05:00 +8°C° 0 mm 0 m/s 755 mmHg 88%
06:00 +9°C° 0 mm 1 m/s 755 mmHg 89%
07:00 +9°C° 0 mm 1 m/s 755 mmHg 89%
08:00 +11°C° 0 mm 1 m/s 755 mmHg 83%
09:00 +12°C° 0 mm 1 m/s 755 mmHg 77%
10:00 +14°C° 0 mm 1 m/s 755 mmHg 71%
11:00 +15°C° 0 mm 1 m/s 755 mmHg 67%
12:00 +16°C° 0 mm 1 m/s 754 mmHg 63%
13:00 +18°C° 0 mm 1 m/s 754 mmHg 59%
14:00 +18°C° 0 mm 1 m/s 754 mmHg 61%
15:00 +18°C° 0 mm 1 m/s 754 mmHg 63%
16:00 +18°C° 0 mm 1 m/s 754 mmHg 65%
17:00 +15°C° 0 mm 2 m/s 754 mmHg 71%
18:00 +14°C° 0 mm 2 m/s 754 mmHg 77%
19:00 +12°C° 0 mm 2 m/s 754 mmHg 83%
20:00 +12°C° 0 mm 2 m/s 754 mmHg 85%
21:00 +10°C° 0 mm 2 m/s 754 mmHg 87%
22:00 +10°C° 0 mm 2 m/s 753 mmHg 89%
23:00 +11°C° 0 mm 1 m/s 753 mmHg 90%

3 Outubro, Sábado

Tempo Temperatura Precipitação Vento Pressão Humidade
00:00 +10°C° 0 mm 1 m/s 753 mmHg 91%
01:00 +10°C° 0 mm 1 m/s 753 mmHg 92%
02:00 +9°C° 0 mm 2 m/s 753 mmHg 93%
03:00 +9°C° 0 mm 2 m/s 753 mmHg 93%
04:00 +8°C° 0 mm 2 m/s 753 mmHg 94%
05:00 +8°C° 0 mm 2 m/s 753 mmHg 94%
06:00 +8°C° 0 mm 2 m/s 753 mmHg 95%
07:00 +8°C° 0 mm 2 m/s 752 mmHg 95%
08:00 +10°C° 0 mm 2 m/s 752 mmHg 90%
09:00 +11°C° 0 mm 3 m/s 752 mmHg 85%
10:00 +12°C° 0 mm 3 m/s 752 mmHg 79%
11:00 +13°C° 0 mm 3 m/s 752 mmHg 76%
12:00 +13°C° 0 mm 4 m/s 752 mmHg 73%
13:00 +14°C° 0 mm 4 m/s 752 mmHg 70%
14:00 +13°C° 0 mm 4 m/s 752 mmHg 71%
15:00 +12°C° 0 mm 4 m/s 752 mmHg 72%
16:00 +12°C° 0 mm 3 m/s 752 mmHg 73%
17:00 +11°C° 0 mm 3 m/s 753 mmHg 74%
18:00 +11°C° 0 mm 3 m/s 753 mmHg 75%
19:00 +10°C° 0 mm 3 m/s 753 mmHg 76%
20:00 +9°C° 0 mm 3 m/s 754 mmHg 79%
21:00 +8°C° 0 mm 3 m/s 754 mmHg 82%
22:00 +6°C° 0 mm 4 m/s 754 mmHg 86%
23:00 +5°C° 0 mm 3 m/s 754 mmHg 85%

4 Outubro, Domingo

Tempo Temperatura Precipitação Vento Pressão Humidade
00:00 +5°C° 0 mm 3 m/s 755 mmHg 84%
01:00 +4°C° 0 mm 3 m/s 755 mmHg 83%
02:00 +4°C° 0 mm 3 m/s 755 mmHg 82%
03:00 +4°C° 0 mm 3 m/s 755 mmHg 81%
04:00 +3°C° 0 mm 3 m/s 755 mmHg 80%
05:00 +3°C° 0 mm 3 m/s 755 mmHg 80%
06:00 +2°C° 0 mm 3 m/s 756 mmHg 81%
07:00 +2°C° 0 mm 3 m/s 756 mmHg 81%
08:00 +3°C° 0 mm 3 m/s 756 mmHg 74%
09:00 +4°C° 0 mm 4 m/s 756 mmHg 68%
10:00 +5°C° 0 mm 4 m/s 756 mmHg 62%
11:00 +6°C° 0 mm 4 m/s 756 mmHg 58%
12:00 +7°C° 0 mm 3 m/s 756 mmHg 53%
13:00 +8°C° 0 mm 3 m/s 756 mmHg 49%
14:00 +8°C° 0 mm 3 m/s 755 mmHg 49%
15:00 +8°C° 0 mm 3 m/s 755 mmHg 50%
16:00 +8°C° 0 mm 2 m/s 755 mmHg 50%
17:00 +7°C° 0 mm 2 m/s 755 mmHg 53%
18:00 +6°C° 0 mm 2 m/s 756 mmHg 56%
19:00 +6°C° 0 mm 1 m/s 756 mmHg 60%
20:00 +5°C° 0 mm 1 m/s 756 mmHg 62%
21:00 +5°C° 0 mm 1 m/s 756 mmHg 64%
22:00 +4°C° 0 mm 1 m/s 756 mmHg 66%
23:00 +3°C° 0 mm 0 m/s 756 mmHg 68%

5 Outubro, Segunda-feira

Tempo Temperatura Precipitação Vento Pressão Humidade
00:00 +2°C° 0 mm 0 m/s 756 mmHg 70%
01:00 +2°C° 0 mm 0 m/s 756 mmHg 73%
02:00 +2°C° 0 mm 0 m/s 756 mmHg 73%
03:00 +2°C° 0 mm 0 m/s 756 mmHg 74%
04:00 +1°C° 0 mm 0 m/s 756 mmHg 75%
05:00 +1°C° 0 mm 0 m/s 756 mmHg 75%
06:00 +2°C° 0 mm 0 m/s 756 mmHg 74%
07:00 +2°C° 0 mm 0 m/s 756 mmHg 74%
08:00 +3°C° 0 mm 0 m/s 756 mmHg 68%
09:00 +6°C° 0 mm 1 m/s 756 mmHg 62%
10:00 +7°C° 0 mm 1 m/s 755 mmHg 56%
11:00 +7°C° 0 mm 2 m/s 755 mmHg 52%
12:00 +8°C° 0 mm 2 m/s 755 mmHg 49%
13:00 +9°C° 0 mm 2 m/s 755 mmHg 45%
14:00 +9°C° 0 mm 2 m/s 755 mmHg 49%
15:00 +9°C° 0 mm 2 m/s 754 mmHg 52%
16:00 +9°C° 0 mm 2 m/s 754 mmHg 55%
17:00 +7°C° 0 mm 2 m/s 754 mmHg 60%
18:00 +6°C° 0 mm 2 m/s 754 mmHg 66%
19:00 +4°C° 0 mm 2 m/s 754 mmHg 72%
20:00 +4°C° 0 mm 2 m/s 754 mmHg 74%
21:00 +4°C° 0 mm 2 m/s 754 mmHg 75%
22:00 +3°C° 0 mm 2 m/s 754 mmHg 77%
23:00 +3°C° 0 mm 2 m/s 754 mmHg 78%
Mostrar mais